CW7858 Weather Reports


Display with metric or nautical units.
time (UTC)temp
F
wind
direction
speed
MPH
gust
MPH
rain 1hr
in
rain 24hr
in
rain mn
in
humidity
%
barometer
mb
20180720103236 88 49 3.0 6.0 0.00 0.00 0.00 42 1009.0
20180720102245 89 72 1.0 5.0 0.00 0.00 0.00 44 1009.7
20180720101236 87 93 1.0 5.0 0.00 0.00 0.00 46 1009.7
20180720100250 87 222 3.0 6.0 0.00 0.00 0.00 46 1009.7
20180720095238 87 178 0.0 2.0 0.00 0.00 0.00 47 1009.5
20180720094249 85 268 0.0 3.0 0.00 0.00 0.00 51 1009.7
20180720093252 84 360 2.0 4.0 0.00 0.00 0.00 55 1009.7
20180720092243 83 25 1.0 3.0 0.00 0.00 0.00 59 1009.9
20180720091252 82 206 3.0 5.0 0.00 0.00 0.00 64 1010.2
20180720090240 82 294 4.0 6.0 0.00 0.00 0.00 64 1010.2
20180720085235 82 253 4.0 10.0 0.00 0.00 0.00 66 1008.7
20180720084245 82 82 6.0 10.0 0.00 0.00 0.00 66 1010.8
20180720083235 81 199 1.0 7.0 0.00 0.00 0.00 69 1010.8
20180720082245 81 141 0.0 4.0 0.00 0.00 0.00 69 1009.3
20180720081234 80 55 1.0 6.0 0.00 0.00 0.00 70 1008.7
20180720080248 80 110 4.0 7.0 0.00 0.00 0.00 69 1008.7
20180720075240 79 90 3.0 7.0 0.00 0.00 0.00 69 1010.1
20180720074249 80 233 1.0 3.0 0.00 0.00 0.00 70 1010.2
20180720073241 79 208 1.0 2.0 0.00 0.00 0.00 72 1010.2
20180720072251 79 305 0.0 5.0 0.00 0.00 0.00 73 1009.8
20180720071243 79 360 1.0 3.0 0.00 0.00 0.00 73 1009.5
20180720070235 78 120 2.0 6.0 0.00 0.00 0.00 75 1009.5
20180720065244 77 360 4.0 6.0 0.00 0.00 0.00 74 1009.3
20180720064236 77 59 2.0 4.0 0.00 0.00 0.00 75 1009.8
20180720063247 77 62 2.0 5.0 0.00 0.00 0.00 75 1009.8
20180720062242 77 11 3.0 6.0 0.00 0.00 0.00 76 1010.0
20180720061251 77 280 3.0 5.0 0.00 0.00 0.00 75 1008.6
20180720060247 77 291 1.0 3.0 0.00 0.00 0.00 76 1008.6
20180720055251 77 202 2.0 3.0 0.00 0.00 0.00 76 1009.6
20180720054241 77 206 1.0 8.0 0.00 0.00 0.00 76 1009.3
20180720053235 77 186 2.0 4.0 0.00 0.00 0.00 75 1009.3
20180720052246 77 144 0.0 2.0 0.00 0.00 0.00 75 1009.2
20180720051235 77 151 0.0 2.0 0.00 0.00 0.00 75 1009.0
20180720050243 77 148 1.0 3.0 0.00 0.00 0.00 75 1009.0
20180720045253 77 137 1.0 3.0 0.00 0.00 0.00 75 1009.2
20180720044246 77 157 2.0 8.0 0.00 0.00 0.00 75 1009.1
20180720043237 77 320 2.0 5.0 0.00 0.00 0.00 75 1009.1
20180720042246 77 59 0.0 3.0 0.00 0.00 0.00 75 1009.3
20180720041237 77 277 0.0 2.0 0.00 0.00 0.00 75 1009.2
20180720040247 77 200 1.0 3.0 0.00 0.00 0.00 75 1009.2
20180720035243 77 188 1.0 3.0 0.00 0.00 0.00 75 1008.8
20180720034253 78 232 1.0 2.0 0.00 0.00 0.00 75 1008.7
20180720033243 77 13 1.0 3.0 0.00 0.00 0.00 75 1008.7
20180720032251 77 3 3.0 6.0 0.00 0.00 0.00 76 1008.2
20180720031242 77 69 1.0 5.0 0.00 0.00 0.00 76 1009.2
20180720030234 77 116 1.0 5.0 0.00 0.00 0.00 77 1009.2
20180720025244 77 234 1.0 4.0 0.00 0.00 0.00 76 1009.4
20180720024234 77 356 0.0 3.0 0.00 0.00 0.00 76 1009.2
20180720023243 77 215 2.0 3.0 0.00 0.00 0.00 76 1009.2
20180720022252 77 239 1.0 2.0 0.00 0.00 0.00 76 1009.1
20180720021243 77 234 0.0 2.0 0.00 0.00 0.00 77 1009.7
20180720020259 77 287 1.0 7.0 0.00 0.00 0.00 77 1009.7
20180720015243 77 213 0.0 1.0 0.00 0.00 0.00 77 1009.0
20180720014253 77 213 1.0 4.0 0.00 0.00 0.00 76 1009.4
20180720013243 78 244 1.0 3.0 0.00 0.00 0.00 76 1009.4
20180720012253 78 240 1.0 3.0 0.00 0.00 0.00 76 1009.4
20180720011247 78 83 0.0 2.0 0.00 0.00 0.00 76 1009.7
20180720010236 78 234 2.0 3.0 0.00 0.00 0.00 76 1009.7
20180720005246 78 99 0.0 2.0 0.00 0.00 0.00 76 1009.8
20180720004236 78 275 4.0 5.0 0.00 0.00 0.00 76 1009.8
20180720003252 77 6 1.0 2.0 0.00 0.00 0.00 77 1009.8
20180720002239 77 49 1.0 3.0 0.00 0.00 0.00 77 1009.9
20180720001251 77 24 0.0 3.0 0.00 0.00 0.00 77 1010.2
20180720000239 77 32 1.0 3.0 0.00 0.00 0.00 77 1010.2
20180719235250 77 138 1.0 3.0 0.00 0.00 0.00 77 1010.3
20180719234238 77 107 1.0 6.0 0.00 0.00 0.00 77 1010.3
20180719233253 77 37 1.0 6.0 0.00 0.00 0.00 77 1010.3
20180719232242 77 88 1.0 5.0 0.00 0.00 0.00 77 1010.6
20180719231252 77 68 2.0 6.0 0.00 0.00 0.00 76 1010.4
20180719230242 78 106 3.0 6.0 0.00 0.00 0.00 76 1010.4
20180719225253 78 75 3.0 8.0 0.00 0.00 0.00 75 1010.6
20180719224248 78 80 3.0 7.0 0.00 0.00 0.00 75 1010.7
20180719223240 78 85 3.0 7.0 0.00 0.00 0.00 74 1010.7
20180719222249 78 83 3.0 7.0 0.00 0.00 0.00 74 1010.8
20180719221239 78 21 1.0 8.0 0.00 0.00 0.00 74 1010.8
20180719220253 79 44 3.0 7.0 0.00 0.00 0.00 74 1010.8
20180719215242 79 32 4.0 7.0 0.00 0.00 0.00 73 1010.7
20180719214252 79 360 5.0 8.0 0.00 0.00 0.00 71 1010.7
20180719213241 79 52 4.0 7.0 0.00 0.00 0.00 71 1010.7
20180719212250 80 56 6.0 7.0 0.00 0.00 0.00 69 1010.8
20180719211239 81 13 3.0 5.0 0.00 0.00 0.00 66 1010.7
20180719210234 82 336 1.0 3.0 0.00 0.00 0.00 61 1010.7
20180719205243 82 236 2.0 4.0 0.00 0.00 0.00 60 1010.6
20180719204253 82 99 0.0 3.0 0.00 0.00 0.00 62 1010.4
20180719203238 82 150 0.0 5.0 0.00 0.00 0.00 62 1010.4
20180719202247 82 133 3.0 6.0 0.00 0.00 0.00 61 1010.5
20180719201237 82 200 2.0 8.0 0.00 0.00 0.00 61 1010.0
20180719200232 83 275 3.0 8.0 0.00 0.00 0.00 61 1010.0
20180719195243 83 140 3.0 8.0 0.00 0.00 0.00 62 1009.8
20180719194253 83 127 3.0 7.0 0.00 0.00 0.00 63 1009.7
20180719193243 82 62 2.0 11.0 0.00 0.00 0.00 64 1009.7
20180719192237 82 71 7.0 10.0 0.00 0.00 0.00 64 1009.4
20180719191250 82 49 6.0 13.0 0.00 0.00 0.00 64 1009.1
20180719190242 83 92 6.0 13.0 0.00 0.00 0.00 62 1009.2
20180719185252 83 79 7.0 13.0 0.00 0.00 0.00 61 1008.8
20180719184242 84 89 7.0 11.0 0.00 0.00 0.00 58 1008.7
20180719183253 85 114 5.0 13.0 0.00 0.00 0.00 57 1008.7
20180719182247 86 59 5.0 16.0 0.00 0.00 0.00 54 1008.7
20180719181235 86 103 7.0 14.0 0.00 0.00 0.00 52 1008.7
20180719180248 88 95 4.0 12.0 0.00 0.00 0.00 48 1008.7
20180719175252 89 54 8.0 12.0 0.00 0.00 0.00 42 1008.7
20180719174243 90 62 5.0 10.0 0.00 0.00 0.00 41 1008.7
20180719173235 91 61 6.0 11.0 0.00 0.00 0.00 39 1008.7
20180719172244 90 119 1.0 8.0 0.00 0.00 0.00 40 1008.7
20180719171234 91 137 3.0 8.0 0.00 0.00 0.00 39 1008.6
20180719170244 91 76 2.0 6.0 0.00 0.00 0.00 38 1008.6
20180719165235 91 95 2.0 7.0 0.00 0.00 0.00 39 1008.7
20180719164248 91 104 5.0 11.0 0.00 0.00 0.00 38 1008.9
20180719163239 91 126 4.0 12.0 0.00 0.00 0.00 39 1008.9
20180719162248 91 44 1.0 8.0 0.00 0.00 0.00 37 1008.9
20180719161237 92 95 3.0 10.0 0.00 0.00 0.00 36 1009.1
20180719160246 93 62 1.0 7.0 0.00 0.00 0.00 35 1009.1
20180719155240 92 106 4.0 10.0 0.00 0.00 0.00 35 1009.2
20180719154249 92 133 3.0 16.0 0.00 0.00 0.00 37 1009.3
20180719153250 92 64 3.0 12.0 0.00 0.00 0.00 36 1009.3
20180719152238 93 45 3.0 10.0 0.00 0.00 0.00 35 1009.3
20180719151248 92 71 3.0 9.0 0.00 0.00 0.00 35 1009.3
20180719150238 93 147 6.0 13.0 0.00 0.00 0.00 34 1009.3
20180719145252 93 24 2.0 14.0 0.00 0.00 0.00 34 1009.3
20180719144240 93 138 5.0 12.0 0.00 0.00 0.00 34 1009.3
20180719143253 93 145 7.0 12.0 0.00 0.00 0.00 34 1009.3
20180719142244 93 110 4.0 11.0 0.00 0.00 0.00 34 1009.5
20180719141253 93 62 2.0 11.0 0.00 0.00 0.00 36 1009.5
20180719140251 92 134 6.0 13.0 0.00 0.00 0.00 36 1009.5
20180719135236 92 107 5.0 10.0 0.00 0.00 0.00 36 1009.7
20180719134245 91 140 5.0 10.0 0.00 0.00 0.00 38 1009.7
20180719133236 92 106 3.0 8.0 0.00 0.00 0.00 38 1009.7
20180719132247 91 138 2.0 12.0 0.00 0.00 0.00 39 1009.7
20180719131241 92 106 6.0 14.0 0.00 0.00 0.00 39 1009.8
20180719130252 92 148 7.0 14.0 0.00 0.00 0.00 39 1009.8
20180719125242 92 75 7.0 16.0 0.00 0.00 0.00 40 1009.9
20180719124252 93 232 4.0 16.0 0.00 0.00 0.00 39 1009.9
20180719123235 93 56 5.0 11.0 0.00 0.00 0.00 37 1009.9
20180719122244 92 10 2.0 12.0 0.00 0.00 0.00 36 1010.0
20180719121236 91 71 5.0 11.0 0.00 0.00 0.00 36 1010.2
20180719120246 91 68 6.0 11.0 0.00 0.00 0.00 36 1010.2
20180719115238 90 93 6.0 11.0 0.00 0.00 0.00 37 1010.3
20180719114249 90 71 2.0 9.0 0.00 0.00 0.00 39 1010.6
20180719113243 90 66 5.0 10.0 0.00 0.00 0.00 38 1010.6
20180719112237 89 34 3.0 7.0 0.00 0.00 0.00 40 1010.8
20180719111248 89 54 2.0 8.0 0.00 0.00 0.00 39 1010.9
20180719110239 88 360 4.0 8.0 0.00 0.00 0.00 40 1010.8
20180719105248 88 68 2.0 8.0 0.00 0.00 0.00 42 1010.9
20180719104238 87 25 5.0 8.0 0.00 0.00 0.00 42 1011.3